Weather in Novomitropol'ka

Russia / Krasnoyarsk Krai     56°32′06″N   89°38′33″E
temp.,
°C
wind,
m/s
gust,
m/s
humid.,
%
clouds,
%
prec.,
mm/h
press.,
hPa
HPBL,
m
9 december, thu
thu901:00−17wsw41194100 0.1 1036548
04:00−18wsw41195100 0.3 1036576
07:00−18wsw41194100 0.4 1038540
10:00−18wsw51294100 0.1 1039558
13:00−17wsw61491100 0.3 1039632
16:00−16wsw61589100 0.1 1040771
19:00−16wsw71688100 0.1 1040775
22:00−16wsw71787100 0.0 1039763
10 december, fri
fri1001:00−16wsw81888100 0.1 1039746
04:00−16wsw71887100 0.0 1039737
07:00−16wsw81987100 0.1 1038767
10:00−15wsw71891100 0.2 1039752
13:00−14wsw71691100 0.6 1039718
16:00−14wsw61391100 0.3 1039725
19:00−14wsw51291100 0.3 1041624
22:00−14wsw41292100 0.1 1041562
11 december, sat
sat1101:00−13wsw41291100 0.1 1040575
04:00−11sw41394100 0.2 1039641
07:00−10sw51392100 1.3 1037670
10:00−9sw41486100 0.0 1036629
13:00−7sw41584100 0.0 1033736
16:00−7ssw41487100 0.0 1031626
19:00−7ssw41487100 0.0 1028508
22:00−5sw41683100 0.0 1025724
12 december, sun
sun1201:00−4sw51574100 0.0 1022894
04:00−6wsw61376100 0.0 1020842
07:00−9wsw41185100 0.0 1020703
10:00−10wsw41093100 0.1 1020629
13:00−10w4992100 0.2 1020699
16:00−11w3893100 0.1 1020614
19:00−13w3994100 0.3 1021554
22:00−15w4994100 0.2 1023543
13 december, mon
mon1301:00−17w3895100 0.4 1025507
04:00−18w3896100 0.1 1026449
07:00−19w3896100 0.3 1028448
10:00−19wsw3896100 0.1 1029426
13:00−18wsw3893100 0.2 1029535
16:00−17wsw3995100 0.3 1029609
19:00−17sw3995100 0.5 1028665
22:00−17sw2896100 0.3 1027568